Location: El Bakhil
(32.7726°N, 5.5387°W)
Time: 04:13:10
(UTC+00:00)

DELTA 2 R/B (1) - Pass Details

Date: 03 March 2021
Orbit: 789 x 803 km, 39.6° (Epoch: 12 April)

Event Time Altitude Azimuth Distance (km) Brightness Sun altitude
Rises 20:23:15 0° 251° (WSW) 3,273 7.7 -26.4°
Reaches altitude 10° 20:25:44 10° 254° (WSW) 2,343 6.8 -26.9°
Maximum altitude 20:31:15 72° 338° (NNW) 826 3.6 -28.1°
Enters shadow 20:31:16 72° 341° (NNW) 826 3.6 -28.1°
